Погода в Белёве

Россия / Тульская область     53°48′35″N   36°07′48″E
темп.,
°C
ветер,
м/с
пор.,
м/с
влажн.,
%
обл.,
%
осадки,
мм/ч
давл.,
гПа
погр.,
м
11 мая, вт
вт1100:00+6ссв4137811 0.0 1025297
03:00+6ссв511835 0.0 1025264
06:00+7ссв613855 0.0 1024339
09:00+12св711735 0.0 1024488
12:00+17св710674 0.0 1023889
15:00+19всв7106587 0.0 10221444
18:00+17в61079100 1.2 1022680
21:00+11вюв3794100 2.5 1024196
12 мая, ср
ср1200:00+8вюв389219 0.0 1025164
03:00+6юв22900 0.0 102632
06:00+6в23895 0.0 102687
09:00+11всв347014 0.0 1025615
12:00+15в4655100 0.0 10231535
15:00+10в3387100 1.9 1021319
18:00+10юв1285100 0.8 1019274
21:00+7вюв35924 0.8 101886
13 мая, чт
чт1300:00+7в389561 0.0 1018190
03:00+9вюв615917 0.1 1017519
06:00+9вюв41194100 0.0 1017460
09:00+13юв6108392 0.3 1017846
12:00+10юз3696100 4.9 1016318
15:00+13юз248399 6.7 1015542
18:00+14ю36782 0.1 1015779
21:00+9ююз228848 0.1 101615
14 мая, пт
пт1400:00+8вюв22883 0.0 101610
03:00+7юв229191 0.0 101731
06:00+9вюв3587100 0.0 1016105
09:00+15вюв4778100 0.0 1015401
12:00+20юв7107499 1.9 1013958
15:00+21юв7117298 4.9 10121342
18:00+20ю6118167 1.0 1010693
21:00+15ююв339298 2.5 101137
15 мая, сб
сб1500:00+15ююв2291100 1.1 101029
03:00+14ююв3895100 1.1 1010169
06:00+14ююв310951 0.6 1010354
09:00+18ю598258 0.6 1010560
12:00+21ю566741 0.8 10091315
15:00+21ююз69695 2.1 10081331
18:00+19ююз697744 1.3 1010764
21:00+14юз499466 2.4 1010251